User: anonymous   Login
Location: Fontevrault
(47.1823°N, 0.0493°E)
Time: 00:02:20
(UTC+00:00)
Language:

H-2A R/B - Orbit

View from above orbital plane
View from above orbital plane
View from above satellite
View from above satellite

Ground track
Ground track

The orbit data is extracted from the following two-line orbital elements,

1 39771U 14029F   22222.15836036  .00001352  00000-0  12967-3 0  9994
2 39771  98.1283 124.6343 0016371 180.1092 180.0126 14.94816659447468
Epoch (UTC): 10 August 2022 03:48:02
Eccentricity: 0.0016371
inclination: 98.1283°
perigee height: 571 km
apogee height: 594 km
right ascension of ascending node: 124.6343°
argument of perigee: 180.1092°
revolutions per day: 14.94816659
mean anomaly at epoch: 180.0126°
orbit number at epoch: 44746

The dashed part of the orbit path shows where the satellite is in the earth's shadow,  

DLR